FENGYUN 1C DEB

Satellite information

Favourite Embed

Satellite Type and Status

DEBRISIN ORBIT

Key statistics

Satellite FENGYUN 1C DEB at a glance.

Uptime

9556

Days in orbit

Revolutions

≈ 14.7

Per day

Orbit

SSO

Sun Synchronous Orbit

Inclination

98.7

Latest

Satellite identification and parameters

Extended collection of information and parameters for FENGYUN 1C DEB.

Object identification

Identified? True

Debris? True

Object name: FENGYUN 1C DEB

International designator: 1999-025CWT

Object number (NORAD): 32245

Object ID (CCSDS): 32245

Country: PEOPLES REPUBLIC OF CHINA (PRC)

Current information (Y/N): Y

RCS size: SMALL

Orbital parameters

Period: 97.728 minutes

Inclination: 98.6633 deg

SMA: 7028.103 km

Apoapsis: 723.494 km

Periapsis: 576.443 km

RAAN: 13.8044 deg

Eccentricy: 0.0104617

Argument of periapsis: 119.4497 deg

Mean anomaly: 241.7198 deg

Mean motion: 14.7348439 rev/day

Mean motion (dot): 0.00006775 rev/day2

B* drag term: 0.00096391 1/REarth

Two-line elements (TLE)

Creation date: July 8, 2025, 2:27 a.m.

Reference frame: TEME

Reference center: EARTH

Epoch: July 7, 2025, 6:18 p.m. UTC

TLE line 0: 0 FENGYUN 1C DEB

TLE line 1: 1 32245U 99025CWT 25188.76265746 .00006775 00000-0 96391-3 0 9994

TLE line 2: 2 32245 98.6633 13.8044 0104617 119.4497 241.7198 14.73484390637772

Live tracking on map

Real-time ground track for satellite FENGYUN 1C DEB.

In-orbit conjunctions

A list of the most updated potential collisions computed for object FENGYUN 1C DEB.

Target Orbit TCA Probability of collision Miss distance Type
ATLAS F BURNER 2 R/B SSO 2025-04-30 09:00:38 0.0002432628 483.0 (m) ROCKET BODY
SL-16 DEB LEO 2024-07-28 17:26:37 0.000102794 154.0 (m) DEBRIS

Associated space launch

Chinese polar orbiting meteorological satellite

FENGYUN 1C DEB was lifted into orbit during the mission ‘Long March 4B | Feng Yun 1C’, on board a Long March 4B space rocket.

The launch took place on May 10, 1999, 1:33 a.m. from Launch Complex 7.

For more information about the launch, click the button.

Launch to space Long March 4B | Feng Yun 1C
Long March 4B | Feng Yun 1C

Agency: N/A

Status: Launch Successful

Launch date: May 10, 1999, 1:33 a.m. UTC

Rocket: Long March 4B

Launch pad: Launch Complex 7

Location: Taiyuan Satellite Launch Center, People's Republic of China

...

Latest news about this satellite

There are no fresh news available about this satellite. Check back as we update our databases every day.


Newsletter sign-up

Weekly statistics, charts and insights to help you stay on top of the space industry.